Agadir Al Massira, Morocco

5:14 AM WET on December 18, 2017 (GMT +0000)
Agadir Al Massira

Weather History for GMAD - October, 2012

Change the Weather History Date:

Sunday, October 14, 2012

  Actual Average Record
Temperature  
Mean Temperature 68 °F -  
Max Temperature 77 °F - - ()
Min Temperature 60 °F - - ()
Cooling Degree Days 4    
Growing Degree Days 18 (Base 50)    
Moisture  
Dew Point 60 °F    
Average Humidity 73    
Maximum Humidity 88    
Minimum Humidity 52    
Precipitation  
Precipitation 0.00 in - - ()
Sea Level Pressure  
Sea Level Pressure 29.90 in    
Wind  
Wind Speed 4 mph ()    
Max Wind Speed 13 mph    
Max Gust Speed -    
Visibility 5.4 miles    
Events      
T = Trace of Precipitation, MM = Missing Value Source: Averaged Metar Reports

Daily Weather History Graph

Daily Weather History Graph

Search for Another Location

Airport or City:

Trip Planner

Search our weather history database for the weather conditions in past years. The results will help you decide how hot, cold, wet, or windy it might be!

Date:

Astronomy

Oct. 14, 2012 Rise Set
Actual Time 6:39 AM WET 6:07 PM WET
Civil Twilight 6:15 AM WET 6:31 PM WET
Nautical Twilight 5:47 AM WET 6:59 PM WET
Astronomical Twilight 5:19 AM WET 7:27 PM WET
Moon 5:25 AM WET (10/14) 5:18 PM WET (10/14)
Length of Visible Light 12h 16m
Length of Day
11h 28m
Waning Crescent, 1% of the Moon is Illuminated
Oct 14
Waning Crescent
Oct 15
New
Oct 22
First Quarter
Oct 29
Full
Nov 7
Last Quarter

Hourly Weather History & Observations

Time (WET) Temp. Dew Point Humidity Pressure Visibility Wind Dir Wind Speed Gust Speed Precip Events Conditions
12:00 AM 64 °F 58 °F 76% 29.94 in 5 mi East 3.5 mph - -   Scattered Clouds
12:00 AM 64.4 °F 59.0 °F 83% 29.92 in 5.0 mi East 3.5 mph - N/A   Partly Cloudy
1:00 AM 64.4 °F 59.0 °F 83% 29.92 in 5.0 mi Calm Calm - N/A   Partly Cloudy
4:00 AM 60.8 °F 57.2 °F 88% 29.89 in 5.0 mi West 3.5 mph - N/A   Partly Cloudy
6:00 AM 60.8 °F 57.2 °F 88% 29.89 in 5.0 mi SE 4.6 mph - N/A   Partly Cloudy
7:00 AM 60.8 °F 57.2 °F 88% 29.92 in 5.0 mi Calm Calm - N/A   Mostly Cloudy
8:00 AM 64.4 °F 60.8 °F 88% 29.95 in 5.0 mi Calm Calm - N/A   Scattered Clouds
9:00 AM 67 °F 61 °F 75% 29.96 in 5 mi Calm Calm - -   Mostly Cloudy
9:00 AM 68.0 °F 60.8 °F 78% 29.95 in 5.0 mi Calm Calm - N/A   Mostly Cloudy
10:00 AM 69.8 °F 60.8 °F 73% 29.95 in 5.0 mi SSW 3.5 mph - N/A   Mostly Cloudy
11:00 AM 73.4 °F 60.8 °F 65% 29.95 in 6.2 mi Variable 2.3 mph - N/A   Mostly Cloudy
12:00 PM 75.2 °F 60.8 °F 61% 29.92 in 5.0 mi Variable 3.5 mph - N/A   Mostly Cloudy
1:00 PM 78.8 °F 60.8 °F 54% 29.89 in 6.2 mi Variable 3.5 mph - N/A   Scattered Clouds
2:00 PM 78.8 °F 60.8 °F 54% 29.86 in 6.2 mi SW 8.1 mph - N/A   Scattered Clouds
3:00 PM 75 °F 61 °F 52% 29.86 in 6 mi WSW 11.5 mph - -   Clear
3:00 PM 75.2 °F 60.8 °F 61% 29.86 in - WSW 11.5 mph - N/A   Clear
4:00 PM 75.2 °F 59.0 °F 57% 29.86 in - WSW 9.2 mph - N/A   Clear
5:00 PM 73.4 °F 59.0 °F 61% 29.86 in 6.2 mi SSW 11.5 mph - N/A   Unknown
6:00 PM 69 °F 60 °F 66% 29.86 in 6 mi South 11.5 mph - -  
6:00 PM 69.8 °F 60.8 °F 73% 29.86 in - South 11.5 mph - N/A   Clear
7:00 PM 68.0 °F 60.8 °F 78% 29.86 in - South 11.5 mph - N/A   Clear
8:00 PM 66.2 °F 60.8 °F 83% 29.89 in - South 12.7 mph - N/A   Clear
9:00 PM 67 °F 61 °F 76% 29.91 in 6 mi SSE 8.1 mph - -  
9:00 PM 68.0 °F 60.8 °F 78% 29.89 in - SSE 8.1 mph - N/A   Clear
10:00 PM 68.0 °F 60.8 °F 78% 29.92 in - SSE 3.5 mph - N/A   Clear
11:00 PM 64.4 °F 59.0 °F 83% 29.92 in - North 3.5 mph - N/A   Clear